| time (UTC) | temp F | wind direction | speed MPH | gust MPH | rain 1hr in | rain 24hr in | rain mn in | humidity % | barometer mb |
| 20260508101836 | 71 | 246 | 1.0 | 0.0 | 0.00 | 0.00 | 0.00 | 77 | 1000.7 |
| 20260508100313 | 72 | 134 | 1.0 | 0.0 | 0.00 | 0.00 | 0.00 | 75 | 1000.6 |
| 20260508094848 | 72 | 250 | 0.0 | 0.0 | 0.00 | 0.00 | 0.00 | 75 | 1000.8 |
| 20260508093327 | 72 | 278 | 1.0 | 0.0 | 0.00 | 0.00 | 0.00 | 74 | 1000.8 |
| 20260508091815 | 73 | 146 | 0.0 | 0.0 | 0.00 | 0.00 | 0.00 | 73 | 1000.6 |
| 20260508090324 | 73 | 130 | 1.0 | 0.0 | 0.00 | 0.00 | 0.00 | 73 | 1000.8 |
| 20260508084832 | 73 | 234 | 1.0 | 0.0 | 0.00 | 0.00 | 0.00 | 73 | 1000.8 |
| 20260508083339 | 73 | 123 | 1.0 | 0.0 | 0.00 | 0.00 | 0.00 | 72 | 1000.3 |
| 20260508081822 | 73 | 271 | 1.0 | 0.0 | 0.00 | 0.00 | 0.00 | 74 | 1000.5 |
| 20260508080336 | 73 | 119 | 0.0 | 0.0 | 0.00 | 0.00 | 0.00 | 75 | 1000.9 |
| 20260508074816 | 73 | 115 | 0.0 | 0.0 | 0.00 | 0.00 | 0.00 | 74 | 1001.3 |
| 20260508073325 | 74 | 176 | 1.0 | 0.0 | 0.00 | 0.00 | 0.00 | 73 | 1001.4 |
| 20260508071837 | 74 | 134 | 1.0 | 0.0 | 0.00 | 0.00 | 0.00 | 73 | 1001.4 |
| 20260508070316 | 74 | 103 | 1.0 | 0.0 | 0.00 | 0.00 | 0.00 | 73 | 1001.3 |
| 20260508064830 | 75 | 138 | 1.0 | 0.0 | 0.00 | 0.00 | 0.00 | 73 | 1001.5 |
| 20260508063334 | 75 | 89 | 1.0 | 0.0 | 0.00 | 0.00 | 0.00 | 72 | 1001.4 |
| 20260508061814 | 76 | 113 | 1.0 | 0.0 | 0.00 | 0.00 | 0.00 | 72 | 1001.6 |
| 20260508060321 | 76 | 137 | 0.0 | 0.0 | 0.00 | 0.00 | 0.00 | 71 | 1001.5 |
| 20260508054824 | 76 | 153 | 0.0 | 0.0 | 0.00 | 0.00 | 0.00 | 74 | 1001.9 |
| 20260508053332 | 75 | 131 | 0.0 | 0.0 | 0.00 | 0.00 | 0.00 | 75 | 1001.8 |
| 20260508051817 | 75 | 128 | 0.0 | 0.0 | 0.00 | 0.00 | 0.00 | 75 | 1002.5 |
| 20260508050314 | 75 | 118 | 0.0 | 0.0 | 0.00 | 0.00 | 0.00 | 75 | 1002.8 |
| 20260508044822 | 75 | 119 | 1.0 | 0.0 | 0.00 | 0.00 | 0.00 | 76 | 1002.6 |
| 20260508043327 | 75 | 112 | 1.0 | 0.0 | 0.00 | 0.00 | 0.00 | 76 | 1002.9 |
| 20260508041816 | 75 | 137 | 0.0 | 0.0 | 0.00 | 0.00 | 0.00 | 74 | 1003.4 |
| 20260508040316 | 75 | 197 | 0.0 | 0.0 | 0.00 | 0.00 | 0.00 | 74 | 1003.7 |
| 20260508034823 | 75 | 146 | 0.0 | 0.0 | 0.00 | 0.00 | 0.00 | 74 | 1003.7 |
| 20260508033326 | 74 | 165 | 0.0 | 0.0 | 0.00 | 0.00 | 0.00 | 77 | 1003.9 |
| 20260508031834 | 74 | 225 | 0.0 | 0.0 | 0.00 | 0.00 | 0.00 | 77 | 1004.2 |
| 20260508030337 | 74 | 98 | 0.0 | 0.0 | 0.00 | 0.00 | 0.00 | 76 | 1004.5 |
| 20260508024844 | 74 | 195 | 0.0 | 0.0 | 0.00 | 0.00 | 0.00 | 76 | 1004.7 |
| 20260508023328 | 75 | 115 | 1.0 | 0.0 | 0.00 | 0.00 | 0.00 | 75 | 1004.9 |
| 20260508021834 | 75 | 120 | 1.0 | 0.0 | 0.00 | 0.00 | 0.00 | 74 | 1005.1 |
| 20260508020319 | 76 | 94 | 1.0 | 0.0 | 0.00 | 0.00 | 0.00 | 73 | 1005.2 |
| 20260508014826 | 76 | 110 | 0.0 | 0.0 | 0.00 | 0.00 | 0.00 | 72 | 1005.0 |
| 20260508013326 | 76 | 250 | 0.0 | 0.0 | 0.00 | 0.00 | 0.00 | 72 | 1004.9 |
| 20260508011839 | 76 | 114 | 0.0 | 0.0 | 0.00 | 0.00 | 0.00 | 72 | 1005.3 |
| 20260508010355 | 76 | 114 | 1.0 | 0.0 | 0.00 | 0.00 | 0.00 | 71 | 1004.9 |
| 20260508004816 | 76 | 196 | 0.0 | 0.0 | 0.00 | 0.00 | 0.00 | 72 | 1005.5 |
| 20260508003321 | 76 | 202 | 0.0 | 0.0 | 0.00 | 0.00 | 0.00 | 73 | 1005.5 |
| 20260508001830 | 75 | 202 | 0.0 | 0.0 | 0.00 | 0.00 | 0.00 | 73 | 1006.0 |
| 20260508000334 | 75 | 202 | 0.0 | 0.0 | 0.00 | 0.00 | 0.00 | 74 | 1006.1 |
| 20260507234818 | 73 | 202 | 0.0 | 0.0 | 0.00 | 0.00 | 0.00 | 76 | 1006.1 |
| 20260507233322 | 71 | 202 | 0.0 | 0.0 | 0.00 | 0.00 | 0.00 | 78 | 1006.4 |
| 20260507231831 | 71 | 202 | 0.0 | 0.0 | 0.00 | 0.00 | 0.00 | 78 | 1006.5 |
| 20260507230314 | 70 | 202 | 0.0 | 0.0 | 0.00 | 0.00 | 0.00 | 80 | 1006.6 |
| 20260507224820 | 69 | 202 | 0.0 | 0.0 | 0.00 | 0.00 | 0.00 | 81 | 1006.6 |
| 20260507223324 | 69 | 202 | 0.0 | 0.0 | 0.00 | 0.00 | 0.00 | 84 | 1006.7 |
| 20260507221826 | 68 | 202 | 0.0 | 0.0 | 0.00 | 0.00 | 0.00 | 86 | 1007.1 |
| 20260507220336 | 68 | 202 | 0.0 | 0.0 | 0.00 | 0.00 | 0.00 | 87 | 1007.1 |
| 20260507214818 | 67 | 202 | 0.0 | 0.0 | 0.00 | 0.00 | 0.00 | 87 | 1007.1 |
| 20260507213325 | 66 | 202 | 0.0 | 0.0 | 0.00 | 0.00 | 0.00 | 88 | 1007.1 |
| 20260507211832 | 66 | 202 | 0.0 | 0.0 | 0.00 | 0.00 | 0.00 | 89 | 1007.0 |
| 20260507210336 | 66 | 202 | 0.0 | 0.0 | 0.00 | 0.00 | 0.00 | 88 | 1007.0 |
| 20260507204842 | 66 | 202 | 0.0 | 0.0 | 0.00 | 0.00 | 0.00 | 89 | 1006.9 |
| 20260507203322 | 66 | 202 | 0.0 | 0.0 | 0.00 | 0.00 | 0.00 | 88 | 1007.0 |
| 20260507201829 | 66 | 202 | 0.0 | 0.0 | 0.00 | 0.00 | 0.00 | 88 | 1007.0 |
| 20260507200317 | 66 | 202 | 0.0 | 0.0 | 0.00 | 0.00 | 0.00 | 88 | 1006.9 |
| 20260507194845 | 66 | 202 | 0.0 | 0.0 | 0.00 | 0.00 | 0.00 | 88 | 1006.6 |
| 20260507193349 | 66 | 202 | 0.0 | 0.0 | 0.00 | 0.00 | 0.00 | 88 | 1006.4 |
| 20260507191836 | 66 | 202 | 0.0 | 0.0 | 0.00 | 0.00 | 0.00 | 88 | 1006.4 |
| 20260507190316 | 66 | 202 | 0.0 | 0.0 | 0.00 | 0.00 | 0.00 | 87 | 1006.4 |
| 20260507184823 | 66 | 202 | 0.0 | 0.0 | 0.00 | 0.00 | 0.00 | 87 | 1006.4 |
| 20260507183337 | 67 | 202 | 0.0 | 0.0 | 0.00 | 0.00 | 0.00 | 86 | 1006.5 |
| 20260507181817 | 67 | 202 | 0.0 | 0.0 | 0.00 | 0.00 | 0.00 | 86 | 1006.4 |
| 20260507180350 | 67 | 202 | 0.0 | 0.0 | 0.00 | 0.00 | 0.00 | 86 | 1006.7 |
| 20260507174857 | 67 | 210 | 0.0 | 0.0 | 0.00 | 0.00 | 0.00 | 86 | 1006.6 |
| 20260507173315 | 67 | 210 | 0.0 | 0.0 | 0.00 | 0.00 | 0.00 | 85 | 1006.7 |
| 20260507171822 | 67 | 213 | 0.0 | 0.0 | 0.00 | 0.00 | 0.00 | 85 | 1006.6 |
| 20260507170328 | 66 | 213 | 0.0 | 0.0 | 0.00 | 0.00 | 0.00 | 86 | 1006.8 |
| 20260507164817 | 66 | 213 | 0.0 | 0.0 | 0.00 | 0.00 | 0.00 | 86 | 1007.0 |
| 20260507163316 | 67 | 213 | 0.0 | 0.0 | 0.00 | 0.00 | 0.00 | 86 | 1007.2 |
| 20260507161830 | 67 | 213 | 0.0 | 0.0 | 0.00 | 0.00 | 0.00 | 85 | 1007.4 |
| 20260507160355 | 67 | 213 | 0.0 | 0.0 | 0.00 | 0.00 | 0.00 | 85 | 1007.5 |
| 20260507154833 | 67 | 213 | 0.0 | 0.0 | 0.00 | 0.00 | 0.00 | 84 | 1007.4 |
| 20260507153316 | 68 | 213 | 0.0 | 0.0 | 0.00 | 0.00 | 0.00 | 84 | 1007.5 |
| 20260507151844 | 68 | 213 | 0.0 | 0.0 | 0.00 | 0.00 | 0.00 | 84 | 1007.8 |
| 20260507150333 | 68 | 213 | 0.0 | 0.0 | 0.00 | 0.00 | 0.00 | 83 | 1007.9 |
| 20260507144815 | 68 | 213 | 0.0 | 0.0 | 0.00 | 0.00 | 0.00 | 83 | 1008.3 |
| 20260507143339 | 68 | 213 | 0.0 | 0.0 | 0.00 | 0.00 | 0.00 | 83 | 1008.4 |
| 20260507141824 | 68 | 213 | 0.0 | 0.0 | 0.00 | 0.00 | 0.00 | 83 | 1008.4 |
| 20260507140327 | 69 | 213 | 0.0 | 0.0 | 0.00 | 0.00 | 0.00 | 83 | 1008.6 |
| 20260507134815 | 69 | 215 | 0.0 | 0.0 | 0.00 | 0.00 | 0.00 | 82 | 1008.4 |
| 20260507133321 | 69 | 216 | 0.0 | 0.0 | 0.00 | 0.00 | 0.00 | 82 | 1008.4 |
| 20260507131821 | 70 | 215 | 0.0 | 0.0 | 0.00 | 0.00 | 0.00 | 82 | 1008.4 |
| 20260507130331 | 69 | 215 | 0.0 | 0.0 | 0.00 | 0.00 | 0.00 | 83 | 1008.5 |
| 20260507124858 | 69 | 215 | 0.0 | 0.0 | 0.00 | 0.00 | 0.00 | 84 | 1008.5 |
| 20260507123315 | 69 | 214 | 0.0 | 0.0 | 0.00 | 0.00 | 0.00 | 85 | 1008.6 |
| 20260507121823 | 69 | 215 | 0.0 | 0.0 | 0.00 | 0.00 | 0.00 | 85 | 1008.7 |
| 20260507120347 | 69 | 111 | 0.0 | 0.0 | 0.00 | 0.00 | 0.00 | 84 | 1008.5 |
| 20260507114832 | 69 | 140 | 0.0 | 0.0 | 0.00 | 0.00 | 0.00 | 85 | 1008.7 |
| 20260507113318 | 69 | 133 | 0.0 | 0.0 | 0.00 | 0.00 | 0.00 | 85 | 1008.6 |
| 20260507111830 | 69 | 124 | 0.0 | 0.0 | 0.00 | 0.00 | 0.00 | 86 | 1008.6 |
| 20260507110329 | 69 | 119 | 0.0 | 0.0 | 0.00 | 0.00 | 0.00 | 86 | 1008.4 |
| 20260507104816 | 69 | 29 | 0.0 | 0.0 | 0.00 | 0.00 | 0.00 | 86 | 1008.4 |
| 20260507103322 | 69 | 115 | 2.0 | 0.0 | 0.00 | 0.00 | 0.00 | 86 | 1008.1 |